Weather History for KISQ - September, 2013

Change the Weather History Date:

Friday, September 13, 2013

  Actual Average (WUND) Record (WUND)
Temperature  
Mean Temperature 48 °F -  
Max Temperature 59 °F - - (-1)
Min Temperature 38 °F - - (-1)
Degree Days  
Heating Degree Days 16    
Moisture  
Dew Point 39 °F    
Average Humidity 71    
Maximum Humidity 95    
Minimum Humidity 40    
Precipitation  
Precipitation 0.00 in - - ()
Sea Level Pressure  
Sea Level Pressure 30.17 in    
Wind  
Wind Speed 8 mph (NNW)    
Max Wind Speed 16 mph    
Max Gust Speed 22 mph    
Visibility 10 miles    
Events      
Averages and records for this station are not official NWS values.
T = Trace of Precipitation, MM = Missing Value Source: NWS Daily Summary

Daily Weather History Graph

Daily Weather History Graph

Search for Another Location

Airport or City:

Trip Planner

Search our weather history database for the weather conditions in past years. The results will help you decide how hot, cold, wet, or windy it might be!

Date:

Astronomy

Sep. 13, 2013 Rise Set
Actual Time 7:20 AM EDT 7:59 PM EDT
Civil Twilight 6:50 AM EDT 8:29 PM EDT
Nautical Twilight 6:14 AM EDT 9:05 PM EDT
Astronomical Twilight 5:37 AM EDT 9:42 PM EDT
Moon 4:02 PM EDT (9/13) 12:35 AM EDT (9/13)
Length of Visible Light 13h 38m
Length of Day
12h 38m
First Quarter, 61% of the Moon is Illuminated
Sep 13
First Quarter
Sep 19
Full
Sep 26
Last Quarter
Oct 4
New
Oct 11
First Quarter

Hourly Weather History & Observations

Time (EDT) Temp. Windchill Dew Point Humidity Pressure Visibility Wind Dir Wind Speed Gust Speed Precip Events Conditions
12:15 AM 47.3 °F - 45.0 °F 92% 30.12 in 10.0 mi NNW 10.4 mph 16.1 mph N/A   Overcast
12:34 AM 46.8 °F - 44.6 °F 92% 30.12 in 10.0 mi NW 6.9 mph - N/A   Overcast
12:55 AM 47.3 °F - 44.4 °F 90% 30.12 in 10.0 mi NNW 9.2 mph - N/A   Overcast
1:15 AM 47.5 °F - 43.3 °F 86% 30.12 in 10.0 mi NNW 10.4 mph - N/A   Overcast
1:35 AM 47.5 °F - 42.8 °F 84% 30.13 in 10.0 mi North 9.2 mph - N/A   Overcast
1:55 AM 46.6 °F - 43.9 °F 90% 30.14 in 10.0 mi North 4.6 mph - N/A   Overcast
2:15 AM 46.6 °F - 43.7 °F 90% 30.14 in 10.0 mi NNW 5.8 mph - N/A   Overcast
2:35 AM 46.6 °F - 43.2 °F 88% 30.14 in 10.0 mi NNW 5.8 mph - N/A   Overcast
2:55 AM 46.6 °F - 42.3 °F 85% 30.14 in 10.0 mi North 10.4 mph - N/A   Overcast
3:15 AM 45.5 °F 41.8 °F 42.1 °F 88% 30.14 in 10.0 mi NNW 6.9 mph - N/A   Overcast
3:35 AM 45.9 °F 42.3 °F 41.9 °F 86% 30.14 in 10.0 mi NNW 6.9 mph - N/A   Overcast
3:55 AM 45.9 °F 42.9 °F 41.0 °F 83% 30.14 in 10.0 mi NNW 5.8 mph - N/A   Overcast
4:14 AM 46.0 °F 42.5 °F 41.0 °F 83% 30.15 in 10.0 mi North 6.9 mph - N/A   Overcast
4:35 AM 46.0 °F 43.1 °F 40.6 °F 81% 30.15 in 10.0 mi North 5.8 mph - N/A   Overcast
4:55 AM 45.5 °F 42.5 °F 41.2 °F 85% 30.15 in 10.0 mi NNW 5.8 mph - N/A   Overcast
5:15 AM 45.5 °F 43.2 °F 41.2 °F 85% 30.15 in 10.0 mi NNW 4.6 mph - N/A   Overcast
5:35 AM 45.1 °F 42.8 °F 41.2 °F 86% 30.16 in 10.0 mi NNW 4.6 mph - N/A   Overcast
5:55 AM 45.0 °F 42.6 °F 40.5 °F 84% 30.17 in 10.0 mi North 4.6 mph - N/A   Overcast
6:15 AM 44.1 °F 42.5 °F 40.5 °F 87% 30.17 in 10.0 mi NNW 3.5 mph - N/A   Overcast
6:35 AM 42.8 °F 41.1 °F 39.4 °F 88% 30.17 in 10.0 mi NNW 3.5 mph - N/A   Mostly Cloudy
6:55 AM 41.4 °F 38.4 °F 38.3 °F 89% 30.18 in 10.0 mi NNW 4.6 mph - N/A   Scattered Clouds
7:15 AM 42.1 °F 38.4 °F 37.8 °F 85% 30.18 in 10.0 mi NNW 5.8 mph - N/A   Mostly Cloudy
7:35 AM 43.3 °F 38.6 °F 37.2 °F 79% 30.18 in 10.0 mi North 8.1 mph - N/A   Overcast
7:54 AM 43.5 °F 39.4 °F 37.0 °F 78% 30.19 in 10.0 mi North 6.9 mph - N/A   Mostly Cloudy
8:15 AM 45.3 °F 41.6 °F 37.6 °F 74% 30.20 in 10.0 mi North 6.9 mph - N/A   Overcast
8:35 AM 46.2 °F 42.7 °F 37.9 °F 73% 30.20 in 10.0 mi North 6.9 mph - N/A   Overcast
8:55 AM 46.9 °F - 38.3 °F 72% 30.20 in 10.0 mi North 10.4 mph - N/A   Overcast
9:15 AM 47.7 °F - 38.5 °F 70% 30.20 in 10.0 mi North 16.1 mph - N/A   Overcast
9:35 AM 48.6 °F - 38.3 °F 68% 30.19 in 10.0 mi North 15.0 mph 21.9 mph N/A   Mostly Cloudy
9:55 AM 49.3 °F - 37.8 °F 65% 30.19 in 10.0 mi North 12.7 mph 18.4 mph N/A   Mostly Cloudy
10:15 AM 49.8 °F - 37.8 °F 63% 30.20 in 10.0 mi North 12.7 mph 17.3 mph N/A   Scattered Clouds
10:35 AM 50.4 °F - 37.9 °F 62% 30.20 in 10.0 mi North 11.5 mph 21.9 mph N/A   Clear
10:55 AM 51.3 °F - 38.5 °F 62% 30.20 in 10.0 mi NNW 11.5 mph 17.3 mph N/A   Scattered Clouds
11:15 AM 52.2 °F - 38.7 °F 60% 30.21 in 10.0 mi North 15.0 mph 21.9 mph N/A   Scattered Clouds
11:35 AM 53.2 °F - 37.8 °F 56% 30.20 in 10.0 mi North 13.8 mph 20.7 mph N/A   Clear
11:55 AM 54.0 °F - 39.0 °F 57% 30.20 in 10.0 mi NNW 13.8 mph 19.6 mph N/A   Clear
12:15 PM 54.1 °F - 38.3 °F 55% 30.20 in 10.0 mi North 9.2 mph - N/A   Clear
12:35 PM 54.5 °F - 38.5 °F 55% 30.20 in 10.0 mi NNW 15.0 mph 19.6 mph N/A   Clear
12:55 PM 55.0 °F - 37.9 °F 53% 30.20 in 10.0 mi North 13.8 mph 18.4 mph N/A   Clear
1:15 PM 55.4 °F - 37.4 °F 51% 30.20 in 10.0 mi North 16.1 mph 20.7 mph N/A   Clear
1:35 PM 57.0 °F - 37.9 °F 49% 30.20 in 10.0 mi North 13.8 mph 17.3 mph N/A   Clear
1:55 PM 57.0 °F - 37.0 °F 47% 30.19 in 10.0 mi North 12.7 mph 18.4 mph N/A   Clear
2:15 PM 57.4 °F - 35.4 °F 44% 30.19 in 10.0 mi NNW 9.2 mph 16.1 mph N/A   Clear
2:35 PM 57.7 °F - 35.2 °F 43% 30.19 in 10.0 mi NW 8.1 mph 18.4 mph N/A   Clear
2:55 PM 57.9 °F - 33.8 °F 40% 30.18 in 10.0 mi North 8.1 mph 20.7 mph N/A   Clear
3:15 PM 58.6 °F - 34.9 °F 41% 30.18 in 10.0 mi North 10.4 mph 17.3 mph N/A   Clear
3:35 PM 58.8 °F - 34.5 °F 40% 30.18 in 10.0 mi NNW 12.7 mph 18.4 mph N/A   Clear
3:55 PM 59.5 °F - 35.8 °F 41% 30.17 in 10.0 mi North 11.5 mph 17.3 mph N/A   Clear
4:15 PM 58.1 °F - 33.8 °F 40% 30.17 in 10.0 mi NNW 9.2 mph 17.3 mph N/A   Clear
4:34 PM 58.5 °F - 36.3 °F 44% 30.17 in 10.0 mi North 6.9 mph - N/A   Clear
4:55 PM 58.6 °F - 37.8 °F 46% 30.16 in 10.0 mi NW 8.1 mph - N/A   Clear
5:15 PM 57.7 °F - 37.2 °F 46% 30.16 in 10.0 mi NNW 9.2 mph - N/A   Clear
5:35 PM 57.4 °F - 36.7 °F 46% 30.16 in 10.0 mi North 8.1 mph - N/A   Clear
5:55 PM 57.0 °F - 37.9 °F 49% 30.17 in 10.0 mi NNW 8.1 mph - N/A   Clear
6:15 PM 56.3 °F - 38.5 °F 51% 30.17 in 10.0 mi North 5.8 mph - N/A   Clear
6:35 PM 55.6 °F - 38.5 °F 53% 30.17 in 10.0 mi North 9.2 mph - N/A   Clear
6:55 PM 54.5 °F - 39.0 °F 56% 30.17 in 10.0 mi NNW 9.2 mph - N/A   Clear
7:15 PM 53.6 °F - 39.9 °F 60% 30.17 in 10.0 mi NNW 8.1 mph - N/A   Clear
7:35 PM 51.8 °F - 40.1 °F 64% 30.16 in 10.0 mi North 5.8 mph - N/A   Clear
7:55 PM 48.9 °F - 40.5 °F 73% 30.16 in 10.0 mi NNW 4.6 mph - N/A   Clear
8:15 PM 47.3 °F - 40.6 °F 78% 30.16 in 10.0 mi NNW 3.5 mph - N/A   Clear
8:35 PM 46.2 °F 44.1 °F 40.6 °F 81% 30.17 in 10.0 mi NW 4.6 mph - N/A   Clear
8:55 PM 44.2 °F - 40.5 °F 87% 30.17 in 10.0 mi Calm Calm - N/A   Clear
9:15 PM 41.2 °F 38.2 °F 39.0 °F 92% 30.17 in 10.0 mi NW 4.6 mph - N/A   Clear
9:35 PM 41.4 °F - 39.4 °F 93% 30.16 in 10.0 mi Calm Calm - N/A   Clear
9:55 PM 41.5 °F - 39.2 °F 91% 30.16 in 10.0 mi Calm Calm - N/A   Clear
10:15 PM 38.8 °F 35.4 °F 37.6 °F 95% 30.15 in 10.0 mi North 4.6 mph - N/A   Clear
10:35 PM 40.1 °F 36.9 °F 38.7 °F 95% 30.15 in 10.0 mi North 4.6 mph - N/A   Clear
10:55 PM 40.3 °F - 38.1 °F 92% 30.14 in 10.0 mi Calm Calm - N/A   Clear
11:15 PM 40.3 °F - 39.0 °F 95% 30.14 in 10.0 mi Calm Calm - N/A   Clear
11:35 PM 39.7 °F - 37.8 °F 93% 30.14 in 10.0 mi Calm Calm - N/A   Clear
11:55 PM 38.3 °F - 36.9 °F 95% 30.14 in 10.0 mi Calm Calm - N/A   Clear